Weather Roundup
Issued by NWS

Home | Current Version | Previous Version | Graphics & Text | Print | Product List | Glossary Off
Versions: 1 2 3 4 5 6 7 8 9 10 11 12 13 14 15 16 17 18 19 20 21 22 23 24 25 26 27 28 29 30 31 32 33 34 35 36 37 38 39 40 41 42 43 44 45 46 47 48 49 50

000
NZUS93 KARX 280510
HRRWXR

CURRENT HOURLY OBSERVATIONS ACROSS
MUCH OF THE UPPER MISSISSIPPI VALLEY
NATIONAL WEATHER SERVICE LA CROSSE WI
1200 AM CDT FRI AUG 28 2015


...SOUTHEAST MINNESOTA...


CITY           SKY/WX    TMP DP  RH WIND       PRES   REMARKS
ROCHESTER      CLOUDY    63  59  87 S14       30.06S
ROCHESTER/MAYO FAIR      65  60  83 SE9G16    30.05S
WINONA         PTCLDY    63  59  88 SE3       30.05S
AUSTIN         CLOUDY    64  61  88 S9        30.04F
ALBERT LEA     LGT RAIN  64  63  94 SE8       30.02F
DODGE CENTER   CLOUDY    63  59  88 S9        30.05S
PRESTON        MOCLDY    62  58  86 S7        30.08R
OWATONNA       CLOUDY    64  59  82 S7G17     30.02F
FARIBAULT      CLOUDY    64  61  88 S8        30.02F
$$

...ELSEWHERE IN MINNESOTA...


CITY           SKY/WX    TMP DP  RH WIND       PRES   REMARKS
MINNEAPOLIS    MOCLDY    67  59  75 S9        30.00F
INTNL FALLS    CLEAR     60  58  92 CALM      29.92F
DULUTH         CLOUDY    61  53  75 SE3       29.99F
RED WING       PTCLDY    66  59  77 S8        30.02R
REDWOOD FALLS  CLOUDY    64  62  93 E7        29.95F
MANKATO        CLOUDY    64  57  77 SE10      29.99F
WORTHINGTON    CLOUDY    63  59  88 S10G16    30.00R
FAIRMONT       CLOUDY    63  57  82 S14       30.03R
$$

...SOUTHWEST WISCONSIN...


CITY           SKY/WX    TMP DP  RH WIND       PRES   REMARKS
LA CROSSE      MOCLDY    65  59  81 S5        30.06R
PRAIRIE DU CHI CLOUDY    65  58  77 E6        30.07S
BOSCOBEL       MOCLDY    61  58  90 CALM      30.08F
LONE ROCK      PTCLDY    58  55  90 NE3       30.10S
PLATTEVILLE    PTCLDY    63  60  90 SE7       30.10S
FORT MC COY    PTCLDY    59  57  92 CALM      30.07S
CAMP DOUGLAS   MOCLDY    57  57 100 E5        30.07F
VIROQUA        FAIR      62  59  88 S6        30.09R
WIS DELLS      PTCLDY    59  56  88 S5        30.09F
$$

...ELSEWHERE IN WISCONSIN...


CITY           SKY/WX    TMP DP  RH WIND       PRES   REMARKS
MILWAUKEE      PTCLDY    60  54  80 SW5       30.14R
MADISON        CLEAR     64  56  75 S7        30.10F
GREEN BAY      PTCLDY    59  56  89 S6        30.09S
EAU CLAIRE     MOCLDY    64  58  80 SE3       30.02F
BLACK RVR FLS  FAIR      57  57 100 CALM      30.05S
MEDFORD        PTCLDY    58  56  94 S5        30.07S
WAUSAU         CLEAR     60  57  89 S3        30.07R
WIS RAPIDS     MOCLDY    62  56  80 S3        30.09S
MARSHFIELD     MOCLDY    60  55  83 S5        30.07F
RICE LAKE      PTCLDY    60  57  91 SE3       30.04S
$$

...NORTHEAST IOWA...


CITY           SKY/WX    TMP DP  RH WIND       PRES   REMARKS
DECORAH        MOCLDY    63  61  94 S6        30.08R
MASON CITY     CLOUDY    64  60  87 SE12      30.04F
CHARLES CITY   CLOUDY    64  63  94 SE8       30.06F
OELWEIN        CLOUDY    63  59  88 SE9       30.07F
$$

...ELSEWHERE IN IOWA...


CITY           SKY/WX    TMP DP  RH WIND       PRES   REMARKS
DES MOINES     MOCLDY    67  60  78 SE13      30.02F
IOWA CITY      PTCLDY    61  58  90 SE5       30.09S
FORT DODGE     CLOUDY    63  61  94 E6        30.07R THUNDER
$$

...NORTHERN ILLINOIS...


CITY           SKY/WX    TMP DP  RH WIND       PRES   REMARKS
CHICAGO-OHARE  PTCLDY    59  54  83 CALM      30.13F
CHICAGO-MIDWAY PTCLDY    66  57  72 SE6       30.13F
MOLINE         PTCLDY    63  58  83 E5        30.10S
ROCKFORD       PTCLDY    59  55  87 SE5       30.14R
PEORIA         CLEAR     65  58  78 E6        30.10F
$$

NOTE: "FAIR" INDICATES FEW OR NO CLOUDS BELOW 12,000 FEET WITH NO
SIGNIFICANT WEATHER AND/OR OBSTRUCTIONS TO VISIBILITY. WIND
SPEEDS ARE IN MILES-PER-HOUR.



USA.gov is the U.S. government's official web portal to all federal, state and local government web resources and services.